Location: Bergnershof
(48.9468°N, 10.9431°E)
Time: 04:19:23
(UTC+00:00)

Cosmos 2074 Rocket - Pass Details

Date: 03 March 2021
Orbit: 966 x 987 km, 82.9° (Epoch: 11 April)

Event Time Altitude Azimuth Distance (km) Brightness Sun altitude
Rises 17:34:02 0° 180° (S) 3,676 7.1 -5.9°
Reaches altitude 10° 17:36:33 10° 179° (S) 2,730 6.4 -6.3°
Maximum altitude 17:42:47 74° 95° (E) 1,019 4.0 -7.3°
Drops below altitude 10° 17:49:02 10° 12° (NNE) 2,735 6.2 -8.4°
Sets 17:51:33 0° 11° (N) 3,683 6.9 -8.8°
